Location: Demmingen
(48.6757°N, 10.4375°E)
Time: 03:44:22
(UTC+00:00)

ATLAS 2AS CENTAUR R/B - Pass Details

Date: 23 May 2024
Orbit: 1017 x 1194 km, 63.7° (Epoch: 13 June)

Event Time Altitude Azimuth Distance (km) Brightness Sun altitude
Rises 01:31:13 0° 318° (NW) 3,919 5.9 -14.3°
Reaches altitude 10° 01:34:00 10° 322° (NW) 2,933 5.2 -14.1°
Maximum altitude 01:40:49 59° 41° (NE) 1,209 3.4 -13.4°
Drops below altitude 10° 01:47:22 10° 121° (ESE) 2,821 5.0 -12.8°
Sets 01:49:59 0° 125° (SE) 3,758 5.6 -12.5°
